Location: Unspecified
(0.0000°N, 0.0000°E)
Time: 23:17:05
(UTC+00:00)

S-56A Canister/Altair - Pass Details

Date: 08 October 2020
Orbit: 633 x 2499 km, 38.9° (Epoch: 28 October)

Event Time Altitude Azimuth Distance (km) Brightness Sun altitude
Rises 16:08:35 0° 334° (NNW) 6,157 12.4 24.5°
Reaches altitude 10° 16:16:58 10° 0° (N) 4,976 11.7 22.5°
Maximum altitude 16:21:52 12° 21° (NNE) 4,586 11.3 21.2°
Drops below altitude 10° 16:26:23 10° 42° (NE) 4,547 11.1 20.1°
Sets 16:32:58 0° 69° (ENE) 5,106 11.1 18.5°
